Weather History for Campo, CA

Change the Weather History Date:

Wednesday, December 12, 2012

  Actual Average Record
Temperature  
Mean Temperature 46 °F 48 °F  
Max Temperature 66 °F 63 °F 81 °F (1950)
Min Temperature 26 °F 32 °F 21 °F (1985)
Degree Days  
Heating Degree Days 19 18  
Month to date heating degree days 142 202  
Since 1 July heating degree days 571 772  
Cooling Degree Days 0 0  
Month to date cooling degree days 0 0  
Year to date cooling degree days 942 841  
Moisture  
Dew Point 28 °F    
Average Humidity 40    
Maximum Humidity 63    
Minimum Humidity 16    
Precipitation  
Precipitation 0.00 in 0.07 in 0.83 in (1951)
Month to date precipitation 0.03 0.79  
Year to date precipitation 8.27 14.25  
Since 1 July precipitation 2.22 4.10  
Snow  
Snow 0.00 in - - ()
Month to date snowfall 0.0  
Year to date snowfall 0.0  
Since 1 July snowfall 0.0  
Snow Depth 0.00 in    
Sea Level Pressure  
Sea Level Pressure 29.88 in    
Wind  
Wind Speed 8 mph (SSW)    
Max Wind Speed 20 mph    
Max Gust Speed 26 mph    
T = Trace of Precipitation, MM = Missing Value Source: NWS Daily Summary

Daily Weather History Graph

Daily Weather History Graph

Search for Another Location

Airport:

Trip Planner

Search our weather history database for the weather conditions in past years. The results will help you decide how hot, cold, wet, or windy it might be!

Date:

Astronomy

Dec. 12, 2012 Rise Set
Actual Time 6:38 AM PST 4:40 PM PST
Civil Twilight 6:11 AM PST 5:08 PM PST
Nautical Twilight 5:40 AM PST 5:38 PM PST
Astronomical Twilight 5:10 AM PST 6:08 PM PST
Moon 5:49 AM PST (12/12) 4:21 PM PST (12/12)
Length of Visible Light 10h 56m
Length of Day
10h 02m
Waning Crescent, 0% of the Moon is Illuminated
Dec 12
Waning Crescent
Dec 13
New
Dec 19
First Quarter
Dec 28
Full
Jan 4
Last Quarter

Hourly Weather History & Observations

Time (PST) Temp. Windchill Dew Point Humidity Pressure Visibility Wind Dir Wind Speed Gust Speed Precip Events Conditions
12:52 AM 30.9 °F 23.5 °F 19.9 °F 64% 29.94 in - NE 8.1 mph - N/A   Unknown
1:52 AM 30.9 °F 24.3 °F 19.0 °F 61% 29.93 in - ENE 6.9 mph - N/A   Unknown
2:52 AM 30.0 °F 26.5 °F 19.0 °F 64% 29.92 in - NE 3.5 mph - N/A   Unknown
3:52 AM 30.9 °F 24.3 °F 19.0 °F 61% 29.91 in - ENE 6.9 mph - N/A   Unknown
4:52 AM 30.9 °F 24.3 °F 19.0 °F 61% 29.91 in - ENE 6.9 mph - N/A   Unknown
5:52 AM 28.0 °F 20.0 °F 18.0 °F 66% 29.94 in - NE 8.1 mph - N/A   Unknown
6:52 AM 30.9 °F 24.3 °F 19.0 °F 61% 29.95 in - ENE 6.9 mph - N/A   Unknown
7:52 AM 37.0 °F - 21.0 °F 52% 29.94 in - Calm Calm - N/A   Unknown
8:52 AM 53.1 °F - 23.0 °F 31% 29.92 in - Calm Calm - N/A   Unknown
9:52 AM 59.0 °F - 21.0 °F 23% 29.92 in - Calm Calm - N/A   Unknown
10:52 AM 63.0 °F - 19.0 °F 18% 29.89 in - South 10.4 mph 19.6 mph N/A   Unknown
11:52 AM 64.9 °F - 19.0 °F 17% 29.86 in - SSW 13.8 mph - N/A   Unknown
12:52 PM 66.0 °F - 19.9 °F 17% 29.83 in - SW 13.8 mph - N/A   Unknown
1:52 PM 64.9 °F - 23.0 °F 20% 29.81 in - SW 12.7 mph 23.0 mph N/A   Unknown
2:52 PM 61.0 °F - 37.9 °F 42% 29.83 in - SW 16.1 mph 24.2 mph N/A   Unknown
3:52 PM 60.1 °F - 27.0 °F 28% 29.83 in - SW 16.1 mph - N/A   Unknown
4:52 PM 51.1 °F - 42.1 °F 71% 29.85 in - SW 8.1 mph - N/A   Unknown
5:52 PM 50.0 °F - 43.0 °F 77% 29.86 in - SW 4.6 mph - N/A   Unknown
6:52 PM 50.0 °F - 44.1 °F 80% 29.85 in - SSW 8.1 mph - N/A   Unknown
7:52 PM 48.9 °F - 44.1 °F 83% 29.86 in - SW 6.9 mph - N/A   Unknown
8:52 PM 50.0 °F - 42.1 °F 74% 29.84 in - South 10.4 mph - N/A   Unknown
9:52 PM 50.0 °F - 43.0 °F 77% 29.83 in - SSW 9.2 mph - N/A   Unknown
10:52 PM 51.1 °F - 39.9 °F 66% 29.82 in - South 11.5 mph - N/A   Unknown
11:52 PM 50.0 °F - 41.0 °F 71% 29.80 in - SSW 11.5 mph - N/A   Unknown